Zurück zum Katalog

COSMOS 2449

GLONASS

AktivNavigationMEO
NORAD 33467·PAYLOAD·🇷🇺 Russia

Gestartet Dec 25, 2008 von Baikonur Cosmodrome

Loading…

Nächste Überflüge (nächste 24 Stunden)

TLE

AktuellSource: Space-Track

Epoche: Sep 10, 2026, 07:02 UTC

1 33467U 08067B   26253.29307247  .00000011  00000-0  00000-0 0  9998
2 33467  64.8656  66.3346 0032943 235.4620 124.2631  2.13096687137777

Verfolge COSMOS 2449 in Echtzeit mit AllMySat

Download on the App Store